Regional Weather Roundup
Issued by NWS

Home | Current Version | Previous Version | Graphics & Text | Print | Product List | Glossary On
Versions: 1 2 3 4 5 6 7 8 9 10 11 12 13 14 15 16 17 18 19 20 21 22 23 24 25 26 27 28 29 30 31 32 33 34 35 36 37 38 39 40 41 42 43 44 45 46 47 48 49 50
000
ASUS45 KABQ 041710
RWRNM
WEATHER ROUNDUP FOR NEW MEXICO
NATIONAL WEATHER SERVICE ALBUQUERQUE NM
1000 AM MST WED MAR 04 2015

NOTE: "FAIR" MEANS FEW OR NO CLOUDS BELOW 12,000 FEET AGL WITH NO
       SIGNIFICANT WEATHER OR OBSTRUCTIONS TO VISION.

      THIS PRODUCT IS RELEASED AS TWO VERSIONS.  ONE VERSION NEAR
      THE TOP OF THE HOUR CONTAINING PRELIMINARY DATA FROM ALBUQUERQUE
      AND OTHER STATIONS.  A FINAL VERSION WITH ADDITIONAL DATA IS
      ISSUED ABOUT 10 MINUTES AFTER THE HOUR.

NMZ501-503-504-510>518-041800-
NORTHWEST PLATEAU/NORTHCENTRAL MOUNTAINS

CITY           SKY/WX    TMP DP  RH WIND       PRES   REMARKS
FARMINGTON     SUNNY     37  23  56 W16       29.99R WCI  28
LOS ALAMOS     PTSUNNY   35  24  65 E5        29.95R WCI  31
SANTA FE       CLOUDY    39  24  55 W9        29.94R WCI  33
TAOS           CLOUDY    32  19  59 W7        29.94S WCI  26
ANGEL FIRE     PTSUNNY   27  15  62 W14       29.92R WCI  15

$$
NMZ402-403-502-505>509-041800-
WESTCENTRAL MOUNTAINS/SOUTHWEST MOUNTAINS

CITY           SKY/WX    TMP DP  RH WIND       PRES   REMARKS
GALLUP         SUNNY     32  25  75 E5        30.01R WCI  27
GRANTS         PTSUNNY   37  23  57 N10G17    30.01R WCI  30
SILVER CITY    PTSUNNY   45  25  45 W8        29.98R

$$
NMZ407-409-411-412-041800-
SOUTHERN DESERTS

CITY           SKY/WX    TMP DP  RH WIND       PRES   REMARKS
LORDSBURG      CLOUDY    45  36  70 CALM      29.99R
DEMING         SUNNY     49  33  54 W8        29.96R
LAS CRUCES     SUNNY     51  32  49 W12       29.96R
HOLLOMAN AFB   SUNNY     53  44  70 S6        29.91S
ALAMOGORDO     MOSUNNY   54  39  58 S7        29.93S
T OR C         PTSUNNY   48  27  44 NE6       29.95R

$$
NMZ519>523-041800-
CENTRAL VALLEYS/CENTRAL HIGHLANDS

CITY           SKY/WX    TMP DP  RH WIND       PRES   REMARKS
ALBUQUERQUE    MOSUNNY   44  26  49 W6        29.98R
DOUBLE EAGLE   MOSUNNY   41  25  52 W12       29.98R
MORIARTY ARPT  FAIR      43  21  41 W7        29.96S
CLINES CORNERS SUNNY     38  22  52 W10       29.93R WCI  31
BELEN          FAIR      44  26  48 NW6       29.98S
SOCORRO          N/A     48  27  42 N7G17     29.97S

$$
NMZ524>526-539-540-041800-
SOUTHCENTRAL MOUNTAINS

CITY           SKY/WX    TMP DP  RH WIND       PRES   REMARKS
RUIDOSO        SUNNY     45  23  42 SW18      29.95F

$$
NMZ527>531-041800-
NORTHEAST HIGHLANDS/NORTHEAST PLAINS

CITY           SKY/WX    TMP DP  RH WIND       PRES   REMARKS
LAS VEGAS      FOG       27  26  96 S7        29.96R VSB 1/4 WCI  19
RATON          LGT SNOW  26  21  81 N13       29.98R WCI  15
CLAYTON        LGT SNOW  18  15  88 NE22      30.11R FOG     WCI   1

$$
NMZ532>537-041800-
EASTCENTRAL PLAINS

CITY           SKY/WX    TMP DP  RH WIND       PRES   REMARKS
TUCUMCARI      CLOUDY    25  22  88 NE24      30.10R FOG     WCI   9
CANNON AFB     FRZ DRZL  26  25  96 NE22G28   30.04R WCI  12
CLOVIS AIRPORT CLOUDY    27  25  93 NE21G30   30.05R WCI  13

$$
NMZ028-029-538-041800-
SOUTHEAST PLAINS

CITY           SKY/WX    TMP DP  RH WIND       PRES   REMARKS
ROSWELL        CLOUDY    42  36  79 N16       29.96S
ARTESIA        PTSUNNY   45  41  87 N20G26    29.95S
CARLSBAD       CLOUDY    53  44  71 S5        29.91R
HOBBS          LGT RAIN  48  48 100 E7        29.94F FOG


$$


USA.gov is the U.S. government's official web portal to all federal, state and local government web resources and services.